MXY329 KBDL-KCHS

Flight info

Callsign MXY329
Flight time 1h 38m
Altitude 38000
Route THUMB1 CCC HEADI Q97 SAWED DFENC Q109 JOHAR AMYLU AMYLU3
Aircraft E190/M-SDE3GILORVW/S

Departure

Time 2026-04-28 01:05
Airport Bradley International Airport (KBDL)

Arrival

Time 2026-04-28 02:43
Airport Charleston International Airport (KCHS)
Time Latitude Longitude Altitude Speed Heading
2026-04-28 00:35 41.93224 -72.68601 204 ft 0 kts 314°
2026-04-28 00:56 41.93222 -72.68598 204 ft 3 kts 314°
2026-04-28 00:56 41.93203 -72.68573 207 ft 4 kts 323°
2026-04-28 00:56 41.93183 -72.68559 208 ft 4 kts 25°
2026-04-28 00:57 41.93166 -72.68578 216 ft 3 kts 45°
2026-04-28 00:57 41.93164 -72.68581 204 ft 0 kts 45°
2026-04-28 01:00 41.93166 -72.68578 204 ft 2 kts 45°
2026-04-28 01:00 41.93190 -72.68546 208 ft 7 kts 45°
2026-04-28 01:00 41.93238 -72.68480 206 ft 12 kts 45°
2026-04-28 01:00 41.93311 -72.68386 208 ft 15 kts 35°
2026-04-28 01:01 41.93406 -72.68401 204 ft 15 kts 325°
2026-04-28 01:01 41.93493 -72.68509 215 ft 18 kts 314°
2026-04-28 01:01 41.93585 -72.68631 210 ft 19 kts 316°
2026-04-28 01:01 41.93656 -72.68753 205 ft 15 kts 277°
2026-04-28 01:02 41.93594 -72.68867 207 ft 17 kts 224°
2026-04-28 01:02 41.93496 -72.68994 205 ft 21 kts 226°
2026-04-28 01:02 41.93381 -72.69148 208 ft 25 kts 223°
2026-04-28 01:02 41.93251 -72.69315 209 ft 27 kts 224°
2026-04-28 01:03 41.93154 -72.69460 208 ft 14 kts 242°
2026-04-28 01:03 41.93173 -72.69566 217 ft 9 kts 311°
2026-04-28 01:03 41.93212 -72.69618 212 ft 8 kts 320°
2026-04-28 01:03 41.93251 -72.69602 214 ft 0 kts 43°
2026-04-28 01:04 41.93261 -72.69590 214 ft 11 kts 43°
2026-04-28 01:04 41.93442 -72.69357 216 ft 69 kts 44°
2026-04-28 01:04 41.93968 -72.68673 207 ft 139 kts 45°
2026-04-28 01:04 41.94754 -72.67608 505 ft 176 kts 46°
2026-04-28 01:05 41.95696 -72.66398 1205 ft 195 kts 44°
2026-04-28 01:05 41.96717 -72.65226 2016 ft 199 kts 42°
2026-04-28 01:05 41.97756 -72.63927 2610 ft 213 kts 45°
2026-04-28 01:05 41.98785 -72.62397 3180 ft 233 kts 62°
2026-04-28 01:06 41.99196 -72.60190 3636 ft 250 kts 96°
2026-04-28 01:06 41.98635 -72.58012 4244 ft 253 kts 122°
2026-04-28 01:06 41.97317 -72.56326 3950 ft 270 kts 150°
2026-04-28 01:06 41.95512 -72.55777 4060 ft 272 kts 179°
2026-04-28 01:07 41.93620 -72.56159 4070 ft 276 kts 189°
2026-04-28 01:07 41.91728 -72.56641 4039 ft 275 kts 188°
2026-04-28 01:07 41.89843 -72.57085 4184 ft 277 kts 188°
2026-04-28 01:07 41.88570 -72.57384 4708 ft 283 kts 188°
2026-04-28 01:08 41.85947 -72.58021 5927 ft 290 kts 188°
2026-04-28 01:08 41.83948 -72.58501 6843 ft 293 kts 188°
2026-04-28 01:08 41.81932 -72.59000 7742 ft 295 kts 188°
2026-04-28 01:08 41.79904 -72.59510 8565 ft 298 kts 188°
2026-04-28 01:09 41.77856 -72.60024 9384 ft 301 kts 188°
2026-04-28 01:09 41.75777 -72.60546 10172 ft 307 kts 188°
2026-04-28 01:09 41.73592 -72.61094 10501 ft 329 kts 189°
2026-04-28 01:09 41.71310 -72.61566 11297 ft 331 kts 180°
2026-04-28 01:10 41.68988 -72.61115 11604 ft 349 kts 155°
2026-04-28 01:10 41.67013 -72.59242 12267 ft 344 kts 128°
2026-04-28 01:10 41.65527 -72.56795 13427 ft 338 kts 124°
2026-04-28 01:10 41.64062 -72.54315 14313 ft 342 kts 126°
2026-04-28 01:11 41.62526 -72.51848 15154 ft 349 kts 126°
2026-04-28 01:11 41.60957 -72.49342 15945 ft 354 kts 126°
2026-04-28 01:11 41.59367 -72.46799 16700 ft 360 kts 126°
2026-04-28 01:11 41.57728 -72.44146 16947 ft 381 kts 125°
2026-04-28 01:12 41.56061 -72.41421 17957 ft 374 kts 125°
2026-04-28 01:12 41.54351 -72.38801 18828 ft 378 kts 133°
2026-04-28 01:12 41.52097 -72.36827 19071 ft 403 kts 158°
2026-04-28 01:12 41.49308 -72.36169 19544 ft 415 kts 182°
2026-04-28 01:13 41.46483 -72.36975 20115 ft 418 kts 204°
2026-04-28 01:13 41.41176 -72.40285 21310 ft 426 kts 206°
2026-04-28 01:13 41.38480 -72.41848 21861 ft 430 kts 206°
2026-04-28 01:14 41.35710 -72.43419 22376 ft 434 kts 206°
2026-04-28 01:14 41.32916 -72.45007 22888 ft 438 kts 206°
2026-04-28 01:14 41.30103 -72.46619 23397 ft 442 kts 207°
2026-04-28 01:14 41.27312 -72.48355 23889 ft 443 kts 213°
2026-04-28 01:15 41.24710 -72.50545 24404 ft 443 kts 219°
2026-04-28 01:15 41.22183 -72.52914 24927 ft 446 kts 220°
2026-04-28 01:15 41.19634 -72.55295 25420 ft 450 kts 220°
2026-04-28 01:15 41.17064 -72.57688 25931 ft 453 kts 220°
2026-04-28 01:16 41.14486 -72.60113 26394 ft 456 kts 220°
2026-04-28 01:16 41.11882 -72.62536 26840 ft 459 kts 220°
2026-04-28 01:16 41.09257 -72.64962 27285 ft 461 kts 220°
2026-04-28 01:16 41.06615 -72.67397 27689 ft 464 kts 220°
2026-04-28 01:17 41.03951 -72.69842 28063 ft 467 kts 220°
2026-04-28 01:17 41.01269 -72.72297 28415 ft 470 kts 220°
2026-04-28 01:17 40.98574 -72.74761 28773 ft 472 kts 221°
2026-04-28 01:17 40.95861 -72.77238 29117 ft 475 kts 221°
2026-04-28 01:18 40.93139 -72.79718 29519 ft 475 kts 221°
2026-04-28 01:18 40.90448 -72.82241 30029 ft 471 kts 223°
2026-04-28 01:18 40.87828 -72.84818 30514 ft 469 kts 224°
2026-04-28 01:18 40.85205 -72.87388 30882 ft 470 kts 224°
2026-04-28 01:19 40.82574 -72.89958 31229 ft 471 kts 224°
2026-04-28 01:19 40.80829 -72.91655 31472 ft 471 kts 224°
2026-04-28 01:19 40.77334 -72.95045 31952 ft 470 kts 224°
2026-04-28 01:19 40.74695 -72.97602 32263 ft 472 kts 224°
2026-04-28 01:20 40.72049 -73.00160 32584 ft 472 kts 224°
2026-04-28 01:20 40.69402 -73.02717 32854 ft 472 kts 224°
2026-04-28 01:20 40.66751 -73.05276 33141 ft 473 kts 224°
2026-04-28 01:20 40.64096 -73.07834 33400 ft 473 kts 224°
2026-04-28 01:21 40.61438 -73.10393 33665 ft 473 kts 224°
2026-04-28 01:21 40.58776 -73.12952 33884 ft 475 kts 224°
2026-04-28 01:21 40.56107 -73.15516 34126 ft 475 kts 225°
2026-04-28 01:21 40.53435 -73.18081 34392 ft 475 kts 225°
2026-04-28 01:22 40.50768 -73.20639 34649 ft 475 kts 225°
2026-04-28 01:22 40.48099 -73.23194 34922 ft 474 kts 225°
2026-04-28 01:22 40.45430 -73.25747 35158 ft 475 kts 225°
2026-04-28 01:22 40.42763 -73.28296 35406 ft 474 kts 225°
2026-04-28 01:23 40.40095 -73.30842 35653 ft 474 kts 225°
2026-04-28 01:23 40.37434 -73.33381 35925 ft 473 kts 225°
2026-04-28 01:23 40.34775 -73.35913 36164 ft 472 kts 225°
2026-04-28 01:23 40.32116 -73.38444 36351 ft 473 kts 225°
2026-04-28 01:24 40.29454 -73.40975 36542 ft 473 kts 225°
2026-04-28 01:24 40.26787 -73.43509 36747 ft 473 kts 225°
2026-04-28 01:24 40.25024 -73.45181 36947 ft 472 kts 225°
2026-04-28 01:24 40.22378 -73.47688 37277 ft 468 kts 225°
2026-04-28 01:25 40.19747 -73.50180 37582 ft 466 kts 225°
2026-04-28 01:25 40.17125 -73.52668 37775 ft 466 kts 225°
2026-04-28 01:25 40.13645 -73.55963 37995 ft 466 kts 225°
2026-04-28 01:25 40.11012 -73.58453 38100 ft 468 kts 225°
2026-04-28 01:26 40.08369 -73.60947 38273 ft 466 kts 225°
2026-04-28 01:26 40.06606 -73.62604 38468 ft 463 kts 225°
2026-04-28 01:26 40.01334 -73.67577 38435 ft 472 kts 224°
2026-04-28 01:27 39.95943 -73.72458 38394 ft 484 kts 215°
2026-04-28 01:27 39.89670 -73.75960 38308 ft 493 kts 209°
2026-04-28 01:28 39.83333 -73.79323 38328 ft 491 kts 209°
2026-04-28 01:28 39.77009 -73.82708 38324 ft 492 kts 209°
2026-04-28 01:29 39.70687 -73.86096 38325 ft 491 kts 209°
2026-04-28 01:29 39.64370 -73.89477 38326 ft 491 kts 209°
2026-04-28 01:30 39.58053 -73.92856 38327 ft 491 kts 209°
2026-04-28 01:30 39.51740 -73.96227 38327 ft 491 kts 209°
2026-04-28 01:31 39.45425 -73.99588 38309 ft 490 kts 209°
2026-04-28 01:31 39.39474 -74.03562 38346 ft 468 kts 228°
2026-04-28 01:32 39.34559 -74.08999 38320 ft 466 kts 230°
2026-04-28 01:32 39.29621 -74.14417 38323 ft 466 kts 230°
2026-04-28 01:33 39.24669 -74.19812 38327 ft 466 kts 230°
2026-04-28 01:33 39.19713 -74.25189 38327 ft 466 kts 230°
2026-04-28 01:34 39.14782 -74.30516 38327 ft 465 kts 230°
2026-04-28 01:34 39.09818 -74.35870 38325 ft 465 kts 230°
2026-04-28 01:35 39.04856 -74.41210 38333 ft 465 kts 230°
2026-04-28 01:35 38.99891 -74.46543 38332 ft 465 kts 230°
2026-04-28 01:36 38.94929 -74.51862 38343 ft 464 kts 230°
2026-04-28 01:36 38.90127 -74.57334 38346 ft 460 kts 233°
2026-04-28 01:37 38.85424 -74.62903 38329 ft 460 kts 233°
2026-04-28 01:37 38.80701 -74.68459 38332 ft 460 kts 232°
2026-04-28 01:38 38.75979 -74.73993 38330 ft 460 kts 232°
2026-04-28 01:38 38.71080 -74.79330 38333 ft 464 kts 229°
2026-04-28 01:39 38.66064 -74.84536 38332 ft 464 kts 229°
2026-04-28 01:39 38.61057 -74.89745 38331 ft 465 kts 229°
2026-04-28 01:40 38.56006 -74.94999 38324 ft 471 kts 229°
2026-04-28 01:40 38.50951 -75.00324 38332 ft 469 kts 231°
2026-04-28 01:41 38.46032 -75.05808 38323 ft 470 kts 230°
2026-04-28 01:41 38.40757 -75.10868 38318 ft 475 kts 226°
2026-04-28 01:42 38.35454 -75.15875 38320 ft 474 kts 226°
2026-04-28 01:42 38.30164 -75.20879 38322 ft 473 kts 226°
2026-04-28 01:43 38.24881 -75.25877 38320 ft 473 kts 226°
2026-04-28 01:43 38.19641 -75.30831 38323 ft 473 kts 226°
2026-04-28 01:44 38.14372 -75.35805 38323 ft 471 kts 226°
2026-04-28 01:44 38.09110 -75.40762 38323 ft 470 kts 226°
2026-04-28 01:45 38.03845 -75.45690 38327 ft 472 kts 224°
2026-04-28 01:45 37.98416 -75.50385 38320 ft 472 kts 223°
2026-04-28 01:46 37.92999 -75.55073 38323 ft 471 kts 223°
2026-04-28 01:46 37.91859 -75.56060 38324 ft 471 kts 223°
2026-04-28 01:47 37.86454 -75.60740 38321 ft 470 kts 223°
2026-04-28 01:47 37.80951 -75.65261 38329 ft 475 kts 218°
2026-04-28 01:48 37.75253 -75.69479 38322 ft 474 kts 219°
2026-04-28 01:48 37.69579 -75.73722 38322 ft 474 kts 219°
2026-04-28 01:49 37.63907 -75.77971 38328 ft 476 kts 219°
2026-04-28 01:49 37.58180 -75.82262 38330 ft 481 kts 219°
2026-04-28 01:50 37.52454 -75.86546 38321 ft 481 kts 219°
2026-04-28 01:50 37.46739 -75.90902 38318 ft 480 kts 219°
2026-04-28 01:51 37.41031 -75.95252 38320 ft 479 kts 219°
2026-04-28 01:51 37.35330 -75.99586 38306 ft 479 kts 219°
2026-04-28 01:52 37.29640 -76.03903 38312 ft 477 kts 219°
2026-04-28 01:52 37.23963 -76.08200 38315 ft 476 kts 219°
2026-04-28 01:53 37.18295 -76.12485 38308 ft 475 kts 219°
2026-04-28 01:53 37.12628 -76.16760 38303 ft 475 kts 219°
2026-04-28 01:54 37.06979 -76.21015 38303 ft 474 kts 219°
2026-04-28 01:54 37.01331 -76.25259 38306 ft 473 kts 219°
2026-04-28 01:55 36.95723 -76.29467 38296 ft 473 kts 218°
2026-04-28 01:55 36.90080 -76.33694 38295 ft 473 kts 218°
2026-04-28 01:56 36.84437 -76.37916 38303 ft 472 kts 218°
2026-04-28 01:56 36.78800 -76.42126 38320 ft 472 kts 218°
2026-04-28 01:57 36.73159 -76.46328 38325 ft 472 kts 218°
2026-04-28 01:57 36.67516 -76.50524 38321 ft 472 kts 218°
2026-04-28 01:58 36.61876 -76.54712 38323 ft 472 kts 218°
2026-04-28 01:58 36.56229 -76.58896 38322 ft 472 kts 218°
2026-04-28 01:59 36.50621 -76.63049 38322 ft 472 kts 218°
2026-04-28 01:59 36.44976 -76.67219 38323 ft 472 kts 218°
2026-04-28 02:00 36.39325 -76.71388 38323 ft 473 kts 218°
2026-04-28 02:00 36.33667 -76.75554 38322 ft 473 kts 218°
2026-04-28 02:01 36.28003 -76.79717 38323 ft 473 kts 218°
2026-04-28 02:01 36.22333 -76.83877 38318 ft 474 kts 218°
2026-04-28 02:02 36.16654 -76.88037 38314 ft 474 kts 218°
2026-04-28 02:02 36.10976 -76.92189 38313 ft 474 kts 218°
2026-04-28 02:03 36.05299 -76.96331 38312 ft 473 kts 218°
2026-04-28 02:03 35.99630 -77.00464 38325 ft 473 kts 217°
2026-04-28 02:04 35.93955 -77.04595 38313 ft 473 kts 217°
2026-04-28 02:04 35.88637 -77.09211 38329 ft 463 kts 226°
2026-04-28 02:05 35.83614 -77.14207 38310 ft 464 kts 226°
2026-04-28 02:05 35.78606 -77.19143 38313 ft 464 kts 226°
2026-04-28 02:06 35.73557 -77.24100 38310 ft 464 kts 226°
2026-04-28 02:06 35.68502 -77.29048 38312 ft 464 kts 226°
2026-04-28 02:07 35.63454 -77.33978 38311 ft 464 kts 226°
2026-04-28 02:07 35.58404 -77.38906 38313 ft 463 kts 225°
2026-04-28 02:08 35.53347 -77.43827 38315 ft 464 kts 225°
2026-04-28 02:08 35.48291 -77.48739 38313 ft 464 kts 225°
2026-04-28 02:09 35.43231 -77.53647 38313 ft 464 kts 225°
2026-04-28 02:09 35.38174 -77.58545 38325 ft 463 kts 225°
2026-04-28 02:10 35.33153 -77.63402 38321 ft 463 kts 225°
2026-04-28 02:10 35.28094 -77.68284 38326 ft 463 kts 225°
2026-04-28 02:11 35.23031 -77.73163 38308 ft 464 kts 225°
2026-04-28 02:11 35.17962 -77.78043 38308 ft 464 kts 225°
2026-04-28 02:12 35.12895 -77.82910 38304 ft 463 kts 225°
2026-04-28 02:12 35.07830 -77.87771 38301 ft 463 kts 224°
2026-04-28 02:13 35.02765 -77.92621 38307 ft 463 kts 224°
2026-04-28 02:13 34.97701 -77.97467 38303 ft 463 kts 224°
2026-04-28 02:14 34.92630 -78.02306 38306 ft 461 kts 224°
2026-04-28 02:14 34.87574 -78.07121 38304 ft 461 kts 223°
2026-04-28 02:15 34.80009 -78.14360 38305 ft 461 kts 223°
2026-04-28 02:16 34.74977 -78.19193 38302 ft 461 kts 223°
2026-04-28 02:16 34.69942 -78.24023 38305 ft 461 kts 223°
2026-04-28 02:17 34.64895 -78.28848 38306 ft 462 kts 223°
2026-04-28 02:17 34.59844 -78.33674 38303 ft 462 kts 223°
2026-04-28 02:18 34.55643 -78.37682 38295 ft 462 kts 223°
2026-04-28 02:18 34.50583 -78.42501 38297 ft 463 kts 223°
2026-04-28 02:19 34.44698 -78.48096 38296 ft 463 kts 223°
2026-04-28 02:19 34.40454 -78.52128 38294 ft 463 kts 223°
2026-04-28 02:20 34.35381 -78.56939 37868 ft 465 kts 223°
2026-04-28 02:20 34.32851 -78.59331 37649 ft 458 kts 223°
2026-04-28 02:20 34.30463 -78.61878 36940 ft 458 kts 231°
2026-04-28 02:20 34.28267 -78.64638 36384 ft 454 kts 231°
2026-04-28 02:21 34.26064 -78.67363 35739 ft 452 kts 230°
2026-04-28 02:21 34.23887 -78.70018 35160 ft 450 kts 230°
2026-04-28 02:21 34.21675 -78.72694 34559 ft 451 kts 230°
2026-04-28 02:21 34.19447 -78.75376 33955 ft 453 kts 230°
2026-04-28 02:22 34.17210 -78.78059 33363 ft 454 kts 230°
2026-04-28 02:22 34.14965 -78.80746 32738 ft 454 kts 229°
2026-04-28 02:22 34.12727 -78.83417 32143 ft 451 kts 230°
2026-04-28 02:22 34.10508 -78.86067 31540 ft 446 kts 230°
2026-04-28 02:23 34.08316 -78.88679 30949 ft 440 kts 230°
2026-04-28 02:23 34.06155 -78.91252 30371 ft 434 kts 230°
2026-04-28 02:23 34.04024 -78.93787 29793 ft 427 kts 230°
2026-04-28 02:23 34.01925 -78.96284 29234 ft 421 kts 230°
2026-04-28 02:24 33.99852 -78.98747 28702 ft 415 kts 230°
2026-04-28 02:24 33.97827 -79.01153 28144 ft 410 kts 229°
2026-04-28 02:24 33.95788 -79.03573 27603 ft 406 kts 229°
2026-04-28 02:24 33.93783 -79.05951 27067 ft 403 kts 229°
2026-04-28 02:25 33.91795 -79.08308 26536 ft 399 kts 229°
2026-04-28 02:25 33.89826 -79.10641 26009 ft 396 kts 228°
2026-04-28 02:25 33.87873 -79.12955 25490 ft 392 kts 228°
2026-04-28 02:25 33.85938 -79.15242 24967 ft 388 kts 228°
2026-04-28 02:26 33.84021 -79.17508 24455 ft 384 kts 228°
2026-04-28 02:26 33.82124 -79.19747 23946 ft 380 kts 228°
2026-04-28 02:26 33.80246 -79.21963 23443 ft 376 kts 227°
2026-04-28 02:26 33.78304 -79.24045 22942 ft 374 kts 219°
2026-04-28 02:27 33.76140 -79.25756 22458 ft 372 kts 215°
2026-04-28 02:27 33.73949 -79.27384 21950 ft 369 kts 215°
2026-04-28 02:27 33.71780 -79.29018 21465 ft 367 kts 215°
2026-04-28 02:27 33.69627 -79.30643 20979 ft 364 kts 216°
2026-04-28 02:28 33.67490 -79.32260 20502 ft 362 kts 215°
2026-04-28 02:28 33.65365 -79.33866 20014 ft 360 kts 215°
2026-04-28 02:28 33.63251 -79.35461 19531 ft 358 kts 215°
2026-04-28 02:28 33.61150 -79.37050 19057 ft 355 kts 215°
2026-04-28 02:29 33.59068 -79.38623 18587 ft 353 kts 215°
2026-04-28 02:29 33.56994 -79.40191 17967 ft 354 kts 215°
2026-04-28 02:29 33.54904 -79.41771 17352 ft 352 kts 215°
2026-04-28 02:29 33.52856 -79.43315 16910 ft 345 kts 215°
2026-04-28 02:30 33.50842 -79.44837 16461 ft 340 kts 215°
2026-04-28 02:30 33.48849 -79.46338 16012 ft 338 kts 214°
2026-04-28 02:30 33.46864 -79.47832 15568 ft 336 kts 214°
2026-04-28 02:30 33.44909 -79.49298 15129 ft 336 kts 214°
2026-04-28 02:31 33.42939 -79.50779 14686 ft 332 kts 214°
2026-04-28 02:31 33.40969 -79.52258 14232 ft 327 kts 214°
2026-04-28 02:31 33.39082 -79.53673 13803 ft 322 kts 214°
2026-04-28 02:31 33.37199 -79.55083 13378 ft 317 kts 213°
2026-04-28 02:32 33.35319 -79.56490 12958 ft 312 kts 213°
2026-04-28 02:32 33.33518 -79.57846 12552 ft 308 kts 214°
2026-04-28 02:32 33.31720 -79.59215 12146 ft 305 kts 214°
2026-04-28 02:32 33.29938 -79.60568 11742 ft 302 kts 213°
2026-04-28 02:33 33.28167 -79.61913 11337 ft 301 kts 213°
2026-04-28 02:33 33.26405 -79.63250 10931 ft 300 kts 213°
2026-04-28 02:33 33.24644 -79.64583 10539 ft 299 kts 213°
2026-04-28 02:33 33.22889 -79.65912 10142 ft 298 kts 213°
2026-04-28 02:34 33.21210 -79.67342 9754 ft 296 kts 226°
2026-04-28 02:34 33.20061 -79.69352 9406 ft 293 kts 243°
2026-04-28 02:34 33.19170 -79.71541 8991 ft 294 kts 245°
2026-04-28 02:34 33.18279 -79.73726 8587 ft 292 kts 244°
2026-04-28 02:35 33.17377 -79.75886 8199 ft 290 kts 244°
2026-04-28 02:35 33.16476 -79.78024 7812 ft 287 kts 244°
2026-04-28 02:35 33.15573 -79.80166 7438 ft 284 kts 243°
2026-04-28 02:35 33.14685 -79.82251 7047 ft 281 kts 243°
2026-04-28 02:36 33.13804 -79.84316 6676 ft 278 kts 243°
2026-04-28 02:36 33.12934 -79.86360 6314 ft 275 kts 243°
2026-04-28 02:36 33.12071 -79.88382 5946 ft 272 kts 243°
2026-04-28 02:36 33.11208 -79.90389 5585 ft 270 kts 243°
2026-04-28 02:37 33.10375 -79.92335 5239 ft 263 kts 243°
2026-04-28 02:37 33.09546 -79.94250 4887 ft 250 kts 243°
2026-04-28 02:37 33.08762 -79.96059 4556 ft 241 kts 243°
2026-04-28 02:37 33.08019 -79.97782 4253 ft 233 kts 243°
2026-04-28 02:38 33.07288 -79.99474 3947 ft 227 kts 243°
2026-04-28 02:38 33.06577 -80.01126 3658 ft 221 kts 243°
2026-04-28 02:38 33.05847 -80.02714 3363 ft 216 kts 232°
2026-04-28 02:38 33.04800 -80.03938 3113 ft 208 kts 216°
2026-04-28 02:39 33.03629 -80.04928 2833 ft 205 kts 213°
2026-04-28 02:39 33.02465 -80.05906 2540 ft 203 kts 214°
2026-04-28 02:39 33.01350 -80.06899 2299 ft 198 kts 216°
2026-04-28 02:39 33.00255 -80.07884 2009 ft 196 kts 215°
2026-04-28 02:40 32.99103 -80.08657 1800 ft 182 kts 199°
2026-04-28 02:40 32.97899 -80.08938 1511 ft 173 kts 180°
2026-04-28 02:40 32.96769 -80.08752 1265 ft 157 kts 162°
2026-04-28 02:40 32.95812 -80.08244 1056 ft 146 kts 148°
2026-04-28 02:41 32.94987 -80.07625 847 ft 137 kts 146°
2026-04-28 02:41 32.94208 -80.06995 680 ft 134 kts 144°
2026-04-28 02:41 32.93431 -80.06388 516 ft 133 kts 147°
2026-04-28 02:41 32.92641 -80.05818 400 ft 135 kts 145°
2026-04-28 02:42 32.91836 -80.05209 223 ft 139 kts 147°
2026-04-28 02:42 32.91012 -80.04589 49 ft 138 kts 147°
2026-04-28 02:42 32.90291 -80.04028 40 ft 108 kts 147°
2026-04-28 02:42 32.89764 -80.03636 38 ft 61 kts 146°
2026-04-28 02:43 32.89492 -80.03433 37 ft 43 kts 149°
2026-04-28 02:43 32.89287 -80.03279 38 ft 22 kts 155°
2026-04-28 02:43 32.89174 -80.03326 39 ft 19 kts 236°
2026-04-28 02:43 32.89090 -80.03476 39 ft 23 kts 233°
2026-04-28 02:44 32.89003 -80.03598 38 ft 12 kts 214°
2026-04-28 02:44 32.88916 -80.03617 38 ft 15 kts 185°
2026-04-28 02:44 32.88803 -80.03634 38 ft 19 kts 188°
2026-04-28 02:44 32.88672 -80.03655 38 ft 18 kts 187°
2026-04-28 02:45 32.88589 -80.03665 40 ft 8 kts 177°
2026-04-28 02:45 32.88550 -80.03650 40 ft 2 kts 158°
2026-04-28 02:45 32.88542 -80.03646 40 ft 0 kts 160°